Saranac Lake, NY

8:23 AM EDT on June 23, 2018 (GMT -0400)
Adirondack Regional

Weather History for KSLK - October, 2017

Change the Weather History Date:

Thursday, October 12, 2017

  Actual Average Record
Temperature  
Mean Temperature 46 °F 43 °F  
Max Temperature 60 °F 54 °F 85 °F (1949)
Min Temperature 28 °F 32 °F 15 °F (1987)
Degree Days  
Heating Degree Days 20 22  
Month to date heating degree days 238  
Since 1 July heating degree days 823  
Cooling Degree Days 0 0  
Month to date cooling degree days 0  
Year to date cooling degree days 114  
Moisture  
Dew Point 36 °F    
Average Humidity 77    
Maximum Humidity 100    
Minimum Humidity 48    
Precipitation  
Precipitation 0.00 in 0.12 in 0.61 in (1975)
Month to date precipitation 1.51  
Year to date precipitation 29.34  
Sea Level Pressure  
Sea Level Pressure 30.41 in    
Wind  
Wind Speed 5 mph (ENE)    
Max Wind Speed 9 mph    
Max Gust Speed -    
Visibility 10 miles    
Events      
T = Trace of Precipitation, MM = Missing Value Source: NWS Daily Summary

Daily Weather History Graph

Daily Weather History Graph

Search for Another Location

Airport or City:

Astronomy

Oct. 12, 2017 Rise Set
Actual Time 7:08 AM EDT 6:17 PM EDT
Civil Twilight 6:39 AM EDT 6:46 PM EDT
Nautical Twilight 6:05 AM EDT 7:20 PM EDT
Astronomical Twilight 5:31 AM EDT 7:53 PM EDT
Moon No Moon Rise 2:24 PM EDT (10/12)
Length of Visible Light 12h 07m
Length of Day
11h 08m
Waning Gibbous, 49% of the Moon is Illuminated
Oct 12
Waning Gibbous
Oct 19
New
Oct 27
First Quarter
Nov 4
Full
Nov 10
Last Quarter

Hourly Weather History & Observations

Time (EDT) Temp. Windchill Dew Point Humidity Pressure Visibility Wind Dir Wind Speed Gust Speed Precip Events Conditions
12:51 AM 37.9 °F 34.4 °F 35.1 °F 89% 30.37 in 10.0 mi ENE 4.6 mph - N/A   Clear
1:51 AM 39.0 °F 34.0 °F 35.1 °F 86% 30.38 in 10.0 mi ENE 6.9 mph - N/A   Clear
2:51 AM 37.0 °F 31.6 °F 34.0 °F 89% 30.37 in 10.0 mi NE 6.9 mph - N/A   Clear
3:51 AM 36.0 °F 31.1 °F 33.1 °F 89% 30.38 in 10.0 mi NE 5.8 mph - N/A   Clear
4:51 AM 36.0 °F 33.3 °F 33.1 °F 89% 30.40 in 10.0 mi ENE 3.5 mph - N/A   Clear
5:51 AM 35.1 °F 27.9 °F 34.0 °F 96% 30.41 in 10.0 mi ENE 9.2 mph - N/A   Clear
6:51 AM 35.1 °F 32.2 °F 33.1 °F 92% 30.41 in 10.0 mi East 3.5 mph - N/A   Clear
7:51 AM 36.0 °F 33.3 °F 33.1 °F 89% 30.43 in 10.0 mi NNE 3.5 mph - N/A   Clear
8:51 AM 41.0 °F 36.4 °F 34.0 °F 76% 30.44 in 10.0 mi East 6.9 mph - N/A   Clear
9:51 AM 45.0 °F 42.6 °F 35.1 °F 68% 30.45 in 10.0 mi East 4.6 mph - N/A   Clear
10:51 AM 48.9 °F - 35.1 °F 59% 30.44 in 10.0 mi Variable 3.5 mph - N/A   Clear
11:51 AM 53.1 °F - 37.0 °F 55% 30.44 in 10.0 mi Calm Calm - N/A   Clear
12:51 PM 57.0 °F - 39.0 °F 51% 30.42 in 10.0 mi Calm Calm - N/A   Clear
1:51 PM 57.0 °F - 37.9 °F 49% 30.40 in 10.0 mi NE 6.9 mph - N/A   Clear
2:51 PM 59.0 °F - 39.0 °F 48% 30.40 in 10.0 mi Variable 3.5 mph - N/A   Clear
3:51 PM 59.0 °F - 39.9 °F 49% 30.38 in 10.0 mi NE 9.2 mph - N/A   Clear
4:51 PM 57.0 °F - 39.0 °F 51% 30.38 in 10.0 mi ENE 8.1 mph - N/A   Clear
5:51 PM 53.1 °F - 41.0 °F 64% 30.39 in 10.0 mi ENE 8.1 mph - N/A   Clear
6:51 PM 48.9 °F - 41.0 °F 74% 30.40 in 10.0 mi ENE 4.6 mph - N/A   Clear
7:51 PM 44.1 °F 41.5 °F 39.0 °F 82% 30.42 in 10.0 mi ENE 4.6 mph - N/A   Clear
8:51 PM 37.0 °F - 36.0 °F 96% 30.43 in 10.0 mi Calm Calm - N/A   Clear
9:51 PM 35.1 °F - 35.1 °F 100% 30.43 in 10.0 mi Calm Calm - N/A   Clear
10:51 PM 32.0 °F - 32.0 °F 100% 30.43 in 10.0 mi Calm Calm - N/A   Clear
11:51 PM 28.9 °F - 28.9 °F 100% 30.43 in 10.0 mi Calm Calm - N/A   Clear